This is the latest recevied weather packets stored in our database for station/object N3WPH. If no packets are shown the sender has not sent any weather packets the latest 10 day(s).
| Time | Temp. | Humidity | Pressure | Rain* | Wind** | Luminosity | Snow |
|---|---|---|---|---|---|---|---|
| 1777788147 | 5.56° C | 68% | 1012.6 hPa | 0 mm | - | 0 W/m² | - |
| 1777787843 | 5.56° C | 67% | 1012.7 hPa | 0 mm | - | 0 W/m² | - |
| 1777787539 | 5.56° C | 66% | 1012.6 hPa | 0 mm | - | 0 W/m² | - |
| 1777787234 | 5.56° C | 66% | 1012.6 hPa | 0 mm | - | 0 W/m² | - |
| 1777786931 | 5.56° C | 65% | 1012.7 hPa | 0 mm | - | 0 W/m² | - |
| 1777786629 | 5.56° C | 65% | 1012.6 hPa | 0 mm | - | 0 W/m² | - |
| 1777786328 | 5.56° C | 66% | 1012.8 hPa | 0 mm | - | 0 W/m² | - |
| 1777786023 | 5.56° C | 63% | 1012.6 hPa | 0 mm | - | 0 W/m² | - |
| 1777785720 | 5.56° C | 65% | 1012.7 hPa | 0 mm | - | 0 W/m² | - |
| 1777785415 | 5.56° C | 66% | 1012.7 hPa | 0 mm | - | 0 W/m² | - |
| 1777785113 | 5.56° C | 66% | 1012.9 hPa | 0 mm | - | 0 W/m² | - |
| 1777784810 | 6.11° C | 67% | 1012.9 hPa | 0 mm | - | 0 W/m² | - |
| 1777784506 | 6.11° C | 66% | 1012.8 hPa | 0 mm | - | 0 W/m² | - |
| 1777784204 | 6.11° C | 64% | 1013 hPa | 0 mm | - | 0 W/m² | - |
| 1777783901 | 6.11° C | 65% | 1013.1 hPa | 0 mm | - | 0 W/m² | - |
| 1777783597 | 6.11° C | 65% | 1013 hPa | 0 mm | - | 0 W/m² | - |
| 1777783295 | 6.11° C | 64% | 1013 hPa | 0 mm | - | 0 W/m² | - |
| 1777782992 | 6.11° C | 63% | 1013.2 hPa | 0 mm | - | 0 W/m² | - |
| 1777782688 | 6.11° C | 64% | 1013.1 hPa | 0 mm | - | 0 W/m² | - |
| 1777782385 | 6.11° C | 63% | 1013.2 hPa | 0 mm | - | 0 W/m² | - |
| 1777782081 | 6.67° C | 63% | 1013.2 hPa | 0 mm | - | 0 W/m² | - |
| 1777781778 | 6.67° C | 61% | 1013.2 hPa | 0 mm | - | 0 W/m² | - |
| 1777781476 | 6.67° C | 63% | 1013.1 hPa | 0 mm | - | 0 W/m² | - |
| 1777781173 | 6.67° C | 63% | 1013.2 hPa | 0 mm | - | 0 W/m² | - |
| 1777780870 | 6.67° C | 61% | 1013.1 hPa | 0 mm | - | 0 W/m² | - |
* Rain latest hour (hover to see other rain measurements)
** Current wind speed in m/s (hover to see current wind gust speed)